CZ-2C DEB

Satellite information

Favourite Embed

Satellite Type and Status

DEBRISIN ORBIT

Key statistics

Satellite CZ-2C DEB at a glance.

Uptime

5715

Days in orbit

Revolutions

≈ 14.4

Per day

Orbit

SSO

Sun Synchronous Orbit

Inclination

98.2

Latest

Satellite identification and parameters

Extended collection of information and parameters for CZ-2C DEB.

Object identification

Identified? True

Debris? True

Object name: CZ-2C DEB

International designator: 2009-061F

Object number (NORAD): 36093

Object ID (CCSDS): 36093

Country: PEOPLES REPUBLIC OF CHINA (PRC)

Current information (Y/N): Y

RCS size: SMALL

Orbital parameters

Period: 99.736 minutes

Inclination: 98.1531 deg

SMA: 7124.085 km

Apoapsis: 832.164 km

Periapsis: 659.735 km

RAAN: 280.5928 deg

Eccentricy: 0.0121018

Argument of periapsis: 78.9605 deg

Mean anomaly: 282.517 deg

Mean motion: 14.43807073 rev/day

Mean motion (dot): 0.00003014 rev/day2

B* drag term: 0.0008217 1/REarth

Two-line elements (TLE)

Creation date: July 5, 2025, 7:06 a.m.

Reference frame: TEME

Reference center: EARTH

Epoch: July 5, 2025, 5:57 a.m. UTC

TLE line 0: 0 CZ-2C DEB

TLE line 1: 1 36093U 09061F 25186.24860455 .00003014 00000-0 82170-3 0 9992

TLE line 2: 2 36093 98.1531 280.5928 0121018 78.9605 282.5170 14.43807073816144

Live tracking on map

Real-time ground track for satellite CZ-2C DEB.

In-orbit conjunctions

A list of the most updated potential collisions computed for object CZ-2C DEB.

Target Orbit TCA Probability of collision Miss distance Type
SL-24 DEB SSO 2025-02-23 11:21:50 0.0002031184 105.0 (m) DEBRIS
CZ-6A DEB SSO 2024-11-10 23:18:22 0.0002738269 820.0 (m) DEBRIS
COSMOS 2219 LEO 2024-08-30 22:22:43 0.0001164132 170.0 (m) PAYLOAD

Associated space launch

Chinese experimental satellite of unknown purpose

CZ-2C DEB was lifted into orbit during the mission ‘Long March 2C | Shi Jian 11-01’, on board a Long March 2 space rocket.

The launch took place on Nov. 12, 2009, 2:45 a.m. from Launch Area 4 (SLS-2 / 603).

For more information about the launch, click the button.

Launch to space Long March 2C | Shi Jian 11-01
Long March 2C | Shi Jian 11-01

Agency: N/A

Status: Launch Successful

Launch date: Nov. 12, 2009, 2:45 a.m. UTC

Rocket: Long March 2

Launch pad: Launch Area 4 (SLS-2 / 603)

Location: Jiuquan Satellite Launch Center, People's Republic of China

...

Latest news about this satellite

There are no fresh news available about this satellite. Check back as we update our databases every day.


Newsletter sign-up

Weekly statistics, charts and insights to help you stay on top of the space industry.